Location: Killam
(52.7910°N, 111.8608°W)
Time: 12:58:23
(UTC+00:00)

CUBEBUG 2 - Pass Details

Date: 10 March 2026
Orbit: 548 x 627 km, 97.9° (Epoch: 14 April)

Event Time Altitude Azimuth Distance (km) Brightness Sun altitude
Rises 10:56:21 0° 7° (N) 2,863 ? -26.5°
Reaches altitude 10° 10:58:41 10° 357° (N) 1,968 ? -26.2°
Enters shadow 11:00:36 22° 338° (NNW) 1,354 ? -25.9°
